FENGYUN 1C DEB

Satellite information

Favourite Embed

Satellite Type and Status

DEBRISIN ORBIT

Key statistics

Satellite FENGYUN 1C DEB at a glance.

Uptime

9663

Days in orbit

Revolutions

≈ 14.5

Per day

Orbit

SSO

Sun Synchronous Orbit

Inclination

98.8

Latest

Satellite identification and parameters

Extended collection of information and parameters for FENGYUN 1C DEB.

Object identification

Identified? True

Debris? True

Object name: FENGYUN 1C DEB

International designator: 1999-025EK

Object number (NORAD): 29841

Object ID (CCSDS): 29841

Country: PEOPLES REPUBLIC OF CHINA (PRC)

Current information (Y/N): Y

RCS size: SMALL

Orbital parameters

Period: 99.574 minutes

Inclination: 98.8098 deg

SMA: 7116.348 km

Apoapsis: 882.311 km

Periapsis: 594.115 km

RAAN: 241.0439 deg

Eccentricy: 0.02024883

Argument of periapsis: 125.4989 deg

Mean anomaly: 309.3065 deg

Mean motion: 14.46162123 rev/day

Mean motion (dot): 0.0000164 rev/day2

B* drag term: 0.00036783174 1/REarth

Two-line elements (TLE)

Creation date: Oct. 23, 2025, 2:46 a.m.

Reference frame: TEME

Reference center: EARTH

Epoch: Oct. 22, 2025, 10:36 p.m. UTC

TLE line 0: 0 FENGYUN 1C DEB

TLE line 1: 1 29841U 99025EK 25295.94220135 .00001640 00000-0 36783-3 0 9999

TLE line 2: 2 29841 98.8098 241.0439 0202488 125.4989 309.3065 14.46162123985898

Live tracking on map

Real-time ground track for satellite FENGYUN 1C DEB.

In-orbit conjunctions

A list of the most updated potential collisions computed for object FENGYUN 1C DEB.

Target Orbit TCA Probability of collision Miss distance Type
COSMOS 1680 LEO 2025-10-02 19:24:00 0.002544956 52.0 (m) PAYLOAD
SL-14 R/B LEO 2025-03-09 04:24:06 0.0001480575 343.0 (m) ROCKET BODY
DIAMANT R/B LEO 2024-11-01 15:08:06 0.0001687414 320.0 (m) ROCKET BODY
OBJECT A SSO 2024-09-17 19:14:26 0.0002773165 385.0 (m) UNKNOWN

Associated space launch

Chinese polar orbiting meteorological satellite

FENGYUN 1C DEB was lifted into orbit during the mission ‘Long March 4B | Feng Yun 1C’, on board a Long March 4B space rocket.

The launch took place on May 10, 1999, 1:33 a.m. from Launch Complex 7.

For more information about the launch, click the button.

Launch to space Long March 4B | Feng Yun 1C
Long March 4B | Feng Yun 1C

Agency: N/A

Status: Launch Successful

Launch date: May 10, 1999, 1:33 a.m. UTC

Rocket: Long March 4B

Launch pad: Launch Complex 7

Location: Taiyuan Satellite Launch Center, People's Republic of China

...

Latest news about this satellite

There are no fresh news available about this satellite. Check back as we update our databases every day.


Newsletter sign-up

Weekly statistics, charts and insights to help you stay on top of the space industry.